Theta_e
296 297 298 299 298 298 297 297 299 299 299 300 297 296 299 301 292 289 300 304 300 298 298 299 299 299 299 299 299 300 302 302 303 303 302 302 303 304 304 305 306 307 307 307 309 310 312 314 313 313 314 318 321 321 320 319 320 322 325 325 323 323 324 325 325 325 322 323 324 323 323 322 322 322 325 327 327 326 325 325 325 323 322 322 322 323 322
294 296 297 299 297 297 297 297 297 299 300 299 300 300 301 300 300 302 302 302 297 296 296 296 297 299 298 299 301 301 301 300 300 300 300 301 301 301 301 303 304 304 304 305 307 307 308 308 310 311 312 313 314 317 319 320 320 321 324 322 322 322 321 321 323 324 323 325 323 323 323 323 324 324 324 325 324 325 325 325 325 324 323 323 322 322 322
290 291 296 297 296 298 296 296 296 297 299 298 298 299 300 302 302 303 301 295 290 294 297 296 298 299 299 299 298 298 299 299 299 299 300 300 300 300 302 303 303 302 302 303 304 305 305 307 308 309 310 310 311 311 312 314 316 319 322 322 322 321 321 320 322 323 323 322 322 322 323 323 323 321 321 323 323 322 323 324 325 325 325 323 323 323 322
288 293 294 294 297 297 296 294 293 293 295 294 295 292 295 298 296 298 298 293 289 293 296 297 297 298 297 296 296 296 296 297 297 296 297 298 299 300 300 301 302 301 299 300 301 302 304 306 306 307 306 306 307 307 308 309 311 313 316 318 320 320 320 320 321 322 322 322 320 321 321 322 322 321 320 319 319 320 321 322 323 325 324 324 324 325 325
288 293 295 295 292 294 289 288 288 290 293 295 296 296 297 298 300 294 293 292 295 294 296 293 293 294 294 294 295 295 295 296 296 295 295 296 298 299 300 300 300 300 298 298 299 300 301 303 303 304 305 304 303 305 306 307 309 309 308 310 312 316 319 319 319 321 320 320 320 320 321 321 320 319 318 315 316 319 321 322 324 323 322 322 321 323 324
288 290 292 292 288 282 284 289 293 293 290 293 292 291 294 297 299 296 298 296 295 295 295 293 291 291 291 292 294 297 296 295 295 295 295 296 297 297 298 299 299 299 299 298 298 299 299 300 302 303 305 303 303 303 304 306 306 306 306 307 308 307 308 313 319 321 321 320 320 320 321 321 320 319 319 319 322 322 322 322 322 322 322 323 323 322 322
287 291 290 287 281 282 287 293 294 294 294 294 292 292 294 295 297 297 296 294 294 295 294 293 293 293 294 295 294 294 295 296 295 294 294 294 295 295 296 296 297 297 298 298 298 299 299 299 300 301 302 303 303 303 303 303 305 305 303 303 304 305 306 308 314 318 320 320 320 320 321 320 320 319 319 320 320 321 322 321 321 320 322 322 322 322 323
291 288 288 280 282 286 291 291 293 294 295 294 294 290 291 293 295 296 294 293 292 293 293 293 294 294 295 295 295 295 295 296 295 294 294 295 295 295 295 295 296 296 297 297 298 298 299 298 298 299 300 302 302 302 303 303 303 303 303 302 302 303 303 304 306 309 312 314 316 318 320 319 319 319 319 319 320 320 321 322 322 322 322 323 321 323 323
286 288 288 285 288 288 289 288 289 288 287 289 289 286 288 292 294 295 292 292 292 292 292 293 294 296 296 292 291 296 295 296 296 296 295 296 296 296 297 297 297 298 298 298 298 299 299 299 298 298 299 299 300 300 300 301 302 302 301 301 301 303 303 303 304 305 306 307 309 311 315 317 317 317 317 319 321 322 322 322 321 321 322 322 322 323 322
292 288 284 284 284 282 285 290 292 293 294 293 294 291 287 293 294 296 293 291 291 292 292 293 295 296 291 287 287 293 296 296 296 296 296 296 297 297 297 297 297 298 299 298 298 298 298 299 300 299 299 299 298 298 298 299 300 300 300 299 299 300 301 303 304 305 305 306 307 308 311 315 315 316 317 318 319 321 321 320 320 320 321 320 321 322 322
289 288 285 284 282 283 287 289 292 293 295 294 295 290 287 292 295 295 294 292 293 293 293 294 295 293 287 285 286 292 295 295 296 295 295 295 295 296 296 296 295 296 297 297 297 297 297 298 299 299 300 300 298 297 298 298 298 299 299 299 299 299 300 302 303 304 305 305 306 306 307 308 311 311 311 310 311 315 317 319 319 320 320 319 320 320 320
289 288 286 283 284 282 288 291 292 293 294 294 292 284 284 292 295 296 294 292 292 292 293 293 292 290 286 285 287 292 294 295 295 295 295 295 295 294 295 296 297 297 296 296 295 295 295 297 299 300 300 299 298 298 298 298 297 297 299 300 301 301 301 302 302 303 304 304 304 304 305 307 308 309 310 311 311 311 311 312 312 313 315 316 314 314 316
288 286 286 285 284 289 291 291 293 294 296 293 286 283 286 294 295 295 294 292 293 293 291 292 287 288 291 290 291 293 294 293 293 294 295 295 295 294 294 294 295 296 296 295 294 295 295 297 298 299 299 298 297 297 298 297 297 298 299 301 301 301 302 302 302 303 304 305 305 305 305 306 307 307 308 308 308 308 308 308 309 309 310 311 311 311 312
287 287 286 285 284 287 290 292 293 295 292 285 285 289 296 296 295 295 295 294 294 294 293 290 288 288 291 291 292 292 292 292 292 293 294 294 294 294 294 295 295 295 295 295 295 295 296 297 297 297 297 296 296 297 297 297 298 299 299 299 299 299 299 300 301 302 304 305 306 306 307 307 307 307 308 309 309 308 307 307 308 308 309 310 310 308 308
286 285 284 283 279 286 292 292 294 295 288 288 292 296 297 297 296 295 296 296 295 294 292 291 290 288 289 290 291 291 292 292 291 292 292 293 293 293 293 293 294 295 294 294 294 294 295 296 297 297 297 295 295 296 296 297 299 298 299 299 299 299 298 298 299 300 302 303 304 305 306 306 306 306 307 307 308 310 310 309 308 308 309 309 309 309 308
284 284 280 279 284 288 292 291 286 289 290 293 294 296 294 297 297 296 296 297 297 295 292 290 290 291 291 292 292 292 292 292 292 292 293 293 294 294 294 295 295 296 295 295 294 294 295 296 296 296 296 294 294 295 295 298 299 300 301 301 300 298 297 297 297 297 298 298 300 301 302 303 304 304 304 304 304 305 306 307 306 306 306 307 307 306 305
284 282 283 287 290 290 292 292 291 291 294 297 297 297 296 294 295 298 297 296 296 295 293 292 291 291 292 292 293 292 292 292 292 292 292 293 293 293 294 294 296 296 296 296 296 296 297 297 297 296 296 295 294 294 296 298 298 299 299 300 300 299 299 299 299 298 298 299 299 300 300 300 299 299 300 301 301 303 304 303 303 303 303 304 305 305 304
289 290 290 290 290 290 291 292 293 292 293 295 296 295 293 293 294 296 296 295 294 293 293 291 291 291 291 291 291 292 293 293 292 293 293 294 294 294 295 296 296 296 296 297 297 297 297 297 297 297 297 296 295 295 297 298 298 299 299 298 298 299 299 300 300 300 301 300 300 301 301 301 301 302 301 300 300 301 301 301 301 301 300 300 301 302 302
287 281 289 288 288 290 290 290 291 292 292 291 293 292 293 293 293 293 293 293 294 294 294 293 292 292 293 292 292 292 292 292 292 293 293 294 295 296 295 296 296 297 296 296 296 296 296 297 298 298 298 297 297 297 297 298 299 299 298 298 298 299 299 300 300 300 300 300 300 301 302 302 302 302 301 301 301 299 299 299 300 299 299 299 300 299 300
284 282 287 289 291 291 291 291 289 289 290 291 292 293 294 294 294 293 293 294 293 295 294 293 292 292 293 293 293 292 292 293 293 294 293 293 294 295 296 296 296 296 296 296 296 296 296 296 297 297 297 297 297 298 298 298 298 298 297 298 298 299 300 300 299 299 298 292 296 299 299 300 300 300 300 300 299 298 299 299 300 300 300 298 298 299 299
286 288 289 290 291 291 291 291 291 291 291 291 291 292 293 294 293 293 293 294 293 293 292 293 292 292 293 293 293 293 293 293 293 293 294 294 294 295 294 295 296 296 295 295 296 295 296 297 297 296 296 297 297 297 297 298 298 297 297 297 299 300 300 299 298 298 299 299 299 298 297 297 296 295 297 300 299 297 296 296 295 297 299 299 298 299 299
284 285 287 292 285 283 289 291 291 291 292 292 291 292 292 292 292 292 292 293 295 295 294 293 292 291 292 293 294 294 294 294 294 294 294 295 295 295 296 296 297 296 297 296 296 295 296 296 296 296 296 297 297 297 297 298 298 297 298 299 299 298 298 298 298 298 299 298 299 298 299 297 296 294 287 287 292 297 295 289 287 287 288 294 295 297 299
284 290 293 294 292 291 292 293 295 295 296 295 294 293 293 294 295 294 294 293 293 293 293 293 292 291 292 293 294 294 294 294 295 295 294 294 294 294 295 296 296 296 296 296 296 296 296 296 296 296 296 296 296 297 297 298 298 299 299 299 298 297 296 296 296 298 298 298 298 298 299 299 299 297 295 293 287 286 288 288 288 287 288 287 287 287 292
293 294 295 296 293 291 293 295 297 297 297 296 295 297 297 296 296 296 296 295 294 293 293 294 294 294 293 293 294 293 294 294 294 294 294 294 294 294 295 295 295 296 295 296 295 295 296 296 296 296 296 296 297 297 298 298 299 299 299 298 297 297 297 296 296 295 298 298 298 298 298 298 298 298 298 297 295 288 287 288 288 288 288 288 288 288 287
292 295 297 296 295 296 297 297 297 297 298 297 295 294 294 295 295 296 295 294 295 294 292 292 294 295 294 294 294 293 293 293 294 293 293 293 293 294 294 295 295 295 295 296 297 296 296 295 295 295 295 296 297 297 298 298 299 298 298 298 298 298 298 298 297 296 297 297 297 298 297 297 297 297 296 296 296 296 295 289 289 289 288 288 288 288 288
296 296 296 296 296 295 296 295 295 295 296 296 296 296 296 296 295 295 294 294 294 294 293 293 292 294 294 294 294 294 294 294 294 293 294 294 294 294 294 294 294 296 296 296 296 296 296 295 295 295 295 296 297 297 298 298 298 298 298 298 297 297 298 299 298 298 298 298 297 297 297 296 296 295 294 295 295 295 295 296 297 292 288 287 289 290 290
297 297 296 294 293 294 295 293 291 295 295 296 295 295 295 296 294 294 295 295 295 295 294 294 294 294 294 294 294 295 294 294 294 295 295 295 294 294 295 295 295 295 295 296 295 293 293 294 295 295 295 296 297 298 298 298 298 298 298 298 297 291 287 292 298 298 297 297 297 297 296 295 294 294 295 294 294 294 294 293 294 294 296 297 291 288 292
296 297 296 291 290 291 292 294 295 296 296 295 295 294 295 295 295 294 293 293 294 294 295 295 294 294 293 294 294 293 294 294 294 294 294 294 295 296 296 296 296 295 295 295 295 294 295 295 295 295 295 297 297 297 297 298 298 298 298 298 298 298 298 297 297 297 296 296 296 295 294 294 295 294 293 293 295 294 293 293 294 294 294 295 296 291 289
295 295 296 295 295 295 295 295 295 295 295 296 296 296 295 294 294 294 293 294 294 294 293 294 294 295 294 294 294 293 293 294 293 293 294 295 295 296 296 296 295 295 295 295 295 295 295 295 295 294 295 296 298 298 298 298 297 297 298 298 297 297 297 297 297 297 296 294 293 292 289 291 293 294 294 294 293 294 294 293 292 294 294 295 296 297 294
295 296 295 294 295 295 294 293 293 294 294 295 295 294 295 294 293 293 293 293 294 294 294 294 294 293 294 294 294 294 293 293 294 295 295 295 296 296 295 295 294 295 295 295 295 296 295 295 295 294 295 297 298 298 298 298 297 298 298 298 298 297 298 298 298 297 296 295 292 289 291 293 294 294 293 294 294 293 292 292 292 292 294 294 292 294 292
296 296 296 296 295 295 294 293 294 294 294 295 295 294 294 294 293 293 293 294 294 294 294 294 294 294 294 294 294 295 295 295 295 295 295 296 296 296 295 294 293 293 293 294 294 294 294 295 295 294 296 298 298 298 298 298 298 298 298 297 295 287 283 286 290 296 296 294 293 294 293 293 294 292 291 292 293 293 294 293 292 292 292 294 294 293 293
294 295 295 295 294 293 293 293 293 293 294 294 293 293 293 293 293 293 294 293 294 294 294 294 294 294 294 295 295 295 295 295 295 295 295 296 295 295 295 294 293 290 293 294 294 294 295 295 294 295 297 297 298 298 298 298 298 298 297 293 296 296 291 286 293 293 294 293 293 293 291 294 293 294 293 293 292 292 292 292 291 291 292 292 292 294 292
292 291 291 292 292 293 292 293 293 293 293 293 293 294 294 295 294 294 294 294 294 294 294 294 295 295 295 295 295 295 295 294 294 293 293 293 294 294 294 292 292 293 294 295 295 295 295 295 295 296 296 297 297 298 298 298 298 297 297 297 297 296 292 292 292 295 295 293 293 293 294 293 293 294 293 292 292 291 292 291 291 292 292 294 293 294 290
293 292 293 294 293 292 292 292 293 294 294 294 295 294 294 294 294 294 294 294 294 294 294 295 295 295 295 294 293 290 290 290 290 289 289 289 290 289 289 290 292 293 294 295 295 295 295 295 296 296 297 297 297 298 298 297 297 297 297 297 296 296 295 295 294 296 295 293 293 294 293 293 293 292 292 292 293 292 291 291 291 291 292 293 294 294 289
296 295 296 295 296 295 295 294 294 294 294 293 294 294 295 295 295 294 294 294 294 294 295 295 295 294 293 290 288 287 286 286 285 285 285 286 286 283 284 288 292 294 294 294 294 294 295 296 296 297 297 297 298 298 299 298 298 297 298 298 297 296 296 295 296 295 294 294 295 294 292 292 292 290 291 293 293 292 291 291 291 291 292 292 292 293 292
295 294 295 295 296 296 296 296 295 295 295 294 294 294 294 295 295 294 294 294 295 295 295 294 293 292 289 287 286 284 284 285 284 283 284 283 283 285 284 286 290 292 293 293 294 294 295 296 289 286 297 298 298 299 299 299 298 298 298 297 296 296 295 296 295 295 295 296 294 293 293 290 290 291 291 292 293 293 292 292 291 292 292 292 292 291 291
296 295 295 296 296 297 296 295 296 296 295 295 295 295 295 295 295 296 296 295 295 295 295 294 290 287 286 285 285 284 283 285 286 285 285 283 284 284 285 286 287 289 290 290 291 294 295 296 288 283 293 298 297 298 299 287 296 297 298 297 297 296 295 296 295 296 295 295 294 293 291 291 291 292 291 293 293 292 291 292 291 292 291 292 292 291 292
295 296 296 297 297 297 296 296 296 296 296 295 295 295 295 295 296 296 295 295 295 295 295 293 290 288 287 285 285 283 283 282 281 281 282 281 284 285 286 287 289 291 291 293 292 292 296 293 284 291 297 298 298 298 295 285 288 297 297 296 296 296 295 295 295 294 294 296 294 295 294 293 293 293 292 293 293 292 291 290 291 292 291 291 291 291 292
294 296 297 297 297 296 296 296 297 296 296 295 295 295 295 296 296 296 295 295 296 296 294 293 293 292 292 291 290 291 290 286 282 283 284 282 284 286 288 289 290 291 292 290 290 293 293 294 296 296 296 298 298 298 293 286 285 296 297 297 297 297 295 295 295 295 295 296 295 296 295 294 293 292 292 292 292 291 290 290 291 292 291 292 290 292 291
295 295 296 296 296 296 296 295 296 296 296 296 296 296 296 295 296 296 295 295 296 296 295 295 294 292 292 291 291 290 291 292 290 285 283 285 287 287 288 290 291 291 289 287 292 295 293 289 293 297 297 298 298 297 296 293 292 296 297 297 296 296 296 295 296 296 296 295 294 291 295 293 294 292 292 293 292 291 292 292 292 292 292 292 293 293 292
295 295 295 295 295 295 295 295 296 296 296 296 296 296 297 296 296 296 295 295 296 296 296 295 294 293 293 293 292 292 292 291 292 292 291 289 288 288 288 289 294 295 293 292 295 295 290 291 295 297 298 298 299 295 297 291 295 298 297 297 296 296 296 295 296 296 296 295 295 295 295 295 293 292 292 292 292 292 292 293 292 292 293 292 292 292 292
295 295 295 295 295 295 295 296 296 296 296 297 296 297 297 297 296 295 296 296 296 296 296 296 292 295 295 294 293 292 292 292 292 292 292 291 290 289 288 291 294 294 291 290 291 293 295 295 295 292 298 297 297 290 288 296 297 297 297 297 297 295 296 296 295 295 295 295 295 296 295 294 294 293 292 292 292 292 293 292 292 293 293 293 292 292 292
296 296 295 295 296 296 296 295 295 296 296 296 297 297 297 298 297 296 296 296 296 296 296 296 295 291 293 294 293 292 292 293 293 293 293 294 293 293 291 292 295 296 286 291 295 297 296 297 297 297 293 295 295 287 286 296 297 296 296 296 295 295 295 295 295 295 295 295 295 295 295 295 295 293 292 292 292 292 292 292 292 293 293 293 293 292 293
296 296 296 296 296 296 296 296 296 296 295 297 297 298 298 297 297 296 296 296 296 295 295 295 295 295 294 294 294 293 292 293 292 293 292 292 293 295 295 294 294 293 285 292 294 295 296 296 297 294 289 288 286 285 295 297 297 296 296 295 295 295 294 295 295 295 295 295 294 295 295 293 294 294 295 293 292 293 292 291 293 293 293 293 294 293 293
296 296 296 296 296 296 296 296 296 295 296 297 297 297 297 297 297 297 297 296 295 295 294 296 295 295 295 295 294 294 294 294 294 294 293 292 291 293 295 291 293 293 290 288 294 294 295 296 294 288 289 287 285 285 296 297 296 295 296 295 295 294 294 294 294 295 294 294 295 295 294 294 294 294 294 293 291 292 292 291 292 292 292 292 292 292 293
296 296 297 292 295 296 297 297 297 297 297 296 296 296 296 297 297 297 297 297 296 296 296 296 296 296 296 296 296 296 295 295 295 296 295 295 293 294 296 292 293 291 288 286 292 294 294 288 287 287 287 286 286 293 296 295 295 296 296 295 295 294 294 294 294 294 295 296 295 296 294 295 295 294 295 294 294 292 291 290 290 292 293 293 292 293 293
296 296 296 296 297 297 297 297 297 296 296 296 294 294 295 297 297 297 297 297 297 297 297 297 297 297 297 297 296 295 294 294 295 296 296 297 296 295 292 290 289 286 287 292 293 294 294 294 288 286 286 286 286 295 295 295 295 296 295 296 295 295 295 295 295 295 296 295 294 293 292 293 294 295 295 292 293 292 292 291 292 292 292 291 291 290 290
296 296 296 296 296 297 297 297 296 296 295 294 295 296 296 298 297 297 298 297 297 297 297 297 297 297 298 297 297 297 297 296 293 295 298 298 297 297 296 296 294 288 287 288 289 289 285 287 286 285 285 285 291 296 295 296 296 295 296 296 295 295 295 295 295 296 295 296 294 295 295 295 294 294 295 294 293 293 293 292 292 292 292 291 291 292 291
296 296 297 297 297 296 296 296 295 294 295 296 295 296 297 297 297 297 297 297 297 296 296 296 297 297 298 296 297 298 297 297 296 295 298 298 297 297 297 293 286 285 289 292 294 295 287 285 285 285 285 286 295 296 296 296 295 295 295 295 295 295 295 295 296 296 295 295 295 294 294 294 294 295 294 293 292 293 292 292 292 292 292 292 291 290 290
297 296 297 296 296 295 296 295 294 295 296 296 296 297 298 297 295 296 295 296 296 294 296 297 297 297 297 297 298 298 298 298 298 298 298 298 298 298 296 296 296 289 289 295 296 295 286 283 285 285 288 293 296 296 296 296 296 295 296 296 295 296 294 293 291 290 293 295 294 295 295 294 295 293 293 293 293 293 293 292 291 290 288 290 291 291 291
296 295 296 295 296 297 297 297 296 297 297 297 297 297 296 295 295 295 296 296 297 295 295 296 297 297 297 297 297 298 298 298 297 295 297 298 298 294 293 295 295 291 292 292 295 295 295 293 293 290 291 294 296 296 296 296 296 295 293 295 296 296 295 295 293 294 294 294 294 294 295 294 295 295 294 294 293 292 293 292 292 291 292 292 291 292 291
296 297 297 297 297 297 297 297 298 298 297 297 297 296 296 296 296 295 296 292 295 295 295 295 295 297 298 297 296 297 298 298 297 297 295 295 297 297 295 289 295 292 293 293 295 296 295 294 292 289 290 295 296 295 292 292 296 296 295 296 293 295 295 294 293 293 293 294 292 292 292 293 293 294 293 294 293 293 292 292 292 292 292 292 292 291 291
Wind_Speed
5 5 4 3 5 7 5 6 4 4 3 1 6 5 4 7 5 4 7 10 12 12 10 9 7 5 8 7 6 6 6 6 6 7 9 10 10 10 11 11 11 11 11 11 11 10 10 11 12 11 9 7 5 7 6 7 7 7 5 4 5 7 7 8 8 5 5 4 5 5 4 4 5 3 4 5 5 5 6 6 4 5 6 6 7 5 3
6 6 3 1 3 6 6 6 5 5 5 5 4 3 4 4 3 2 11 11 13 8 8 8 7 7 8 7 7 6 7 7 7 8 10 11 10 10 11 11 11 11 11 11 10 11 11 11 11 10 9 9 9 9 8 9 9 7 6 7 7 8 8 8 7 7 8 8 7 7 7 6 7 6 5 4 5 5 4 4 4 4 5 5 5 4 4
2 4 2 1 2 5 7 7 6 4 4 6 6 3 5 2 7 9 13 14 9 5 7 9 7 8 8 8 9 8 8 7 8 9 11 11 11 11 12 11 11 11 11 11 11 11 10 10 10 10 10 9 9 11 10 9 8 7 5 7 8 8 9 8 8 9 9 9 9 7 7 8 6 6 7 5 4 5 5 4 4 3 3 5 5 4 3
3 4 5 3 3 4 6 6 7 7 3 2 4 2 3 4 4 7 9 7 5 6 8 9 9 9 9 10 8 8 8 8 8 9 10 11 11 11 10 11 11 12 12 12 12 11 11 11 12 11 9 9 10 10 9 9 8 9 10 10 8 8 9 8 8 8 6 5 7 6 6 7 6 6 6 6 4 4 3 4 3 3 2 1 2 3 2
6 8 7 7 3 3 6 4 6 7 4 3 4 5 3 6 1 8 5 3 8 10 10 11 10 10 10 10 8 9 9 9 9 10 11 10 11 12 12 12 12 12 11 11 11 10 10 10 11 11 9 10 10 9 10 8 8 10 11 10 10 9 8 7 8 8 9 8 8 7 8 8 6 5 6 8 2 0 3 3 3 3 2 1 2 2 3
7 7 6 4 4 7 2 4 3 5 4 4 2 3 6 7 5 3 7 9 11 11 9 10 11 11 10 9 10 9 7 8 9 10 10 11 11 12 12 12 12 12 10 9 10 11 12 11 10 9 11 11 9 8 9 10 11 11 11 10 10 9 8 7 6 7 8 9 9 7 7 8 8 8 6 7 6 4 4 3 3 3 3 4 3 3 3
5 8 6 6 8 2 2 1 5 5 5 7 8 7 8 6 5 7 10 11 10 10 10 11 13 15 14 13 12 12 10 10 9 11 11 11 12 13 13 12 12 12 11 11 11 12 12 11 10 10 10 10 9 10 10 11 11 12 11 12 11 9 9 9 9 9 7 7 8 8 7 8 7 6 6 6 6 4 4 4 4 4 4 4 3 3 3
5 4 6 5 3 2 3 3 6 6 1 4 3 5 6 7 4 7 10 10 11 12 14 13 12 15 16 15 13 12 11 10 10 11 11 12 13 13 11 11 11 11 12 11 10 10 9 10 11 11 11 9 11 11 11 12 12 12 12 12 11 10 10 10 10 8 8 8 8 7 8 8 8 6 6 6 6 5 5 4 4 4 3 3 3 3 2
2 2 2 5 8 6 3 1 3 4 3 6 3 1 2 5 2 5 10 12 12 13 13 14 12 14 14 14 11 11 10 10 11 12 12 12 12 12 12 11 12 11 11 11 10 9 10 10 10 10 10 10 11 12 12 12 13 13 13 13 12 11 11 10 9 9 8 8 8 8 8 9 8 8 6 5 5 4 4 4 5 4 4 3 3 4 3
2 4 6 6 4 4 4 5 4 1 4 4 5 2 2 2 3 5 10 12 13 14 12 12 12 8 10 11 7 7 9 10 10 11 11 12 12 12 10 8 10 10 10 10 11 10 10 12 11 9 9 10 12 13 13 12 13 13 13 13 11 10 10 10 10 10 10 9 9 8 8 9 8 7 6 6 6 5 5 4 4 4 4 3 4 3 3
3 3 4 3 3 4 4 6 6 6 5 4 2 4 2 2 5 7 9 12 12 13 14 12 3 3 7 6 5 6 7 8 9 10 10 11 11 10 11 10 9 9 9 10 9 9 10 13 12 10 10 10 12 12 11 11 12 12 13 11 10 10 10 9 9 9 9 9 10 9 9 8 7 8 7 6 5 5 6 6 6 5 4 5 5 4 5
3 4 3 3 4 4 4 7 8 8 5 4 3 4 3 4 7 9 11 12 12 9 5 4 6 3 8 7 5 5 6 7 8 10 10 11 10 10 9 10 10 9 7 7 9 10 11 11 10 11 10 11 13 12 10 10 11 11 10 10 9 9 9 9 9 9 8 9 8 8 8 8 7 7 6 7 7 6 6 6 6 6 5 6 7 5 5
2 2 5 4 4 3 8 10 11 8 4 3 4 2 3 6 8 10 11 11 9 8 7 5 6 7 9 9 7 7 7 8 8 7 8 9 9 9 9 9 8 9 9 9 9 10 8 9 9 10 9 10 12 10 10 10 11 9 8 8 9 8 8 9 9 9 8 8 8 7 6 6 6 6 6 6 7 7 7 6 7 6 8 6 6 6 6
1 1 4 5 6 4 9 10 9 5 4 2 3 2 1 8 9 10 11 11 8 8 8 7 8 9 10 11 7 6 7 8 7 7 9 10 10 9 8 8 8 8 8 10 10 10 9 9 9 9 9 10 10 10 10 11 10 8 8 8 8 8 9 9 8 8 9 8 7 6 6 6 6 7 6 5 4 5 5 6 7 7 6 5 5 5 5
1 1 4 5 5 4 13 15 4 6 2 4 2 2 7 8 10 12 10 9 8 11 12 12 12 12 10 10 10 7 7 7 7 7 7 9 10 10 9 9 8 8 9 10 9 9 8 9 9 8 9 10 9 9 10 9 7 7 6 7 8 8 8 8 8 8 8 9 8 6 7 7 7 7 6 6 6 5 5 6 6 6 5 4 4 4 4
1 4 4 3 4 6 10 9 4 6 4 5 5 3 10 9 9 9 8 8 9 13 15 13 11 12 12 11 8 8 7 8 7 6 6 7 9 10 10 9 8 9 10 9 9 8 8 7 7 7 8 8 8 9 9 6 6 5 5 5 6 6 6 6 7 7 8 8 8 7 8 7 7 8 7 6 6 6 5 4 4 5 4 3 3 3 3
4 4 4 3 4 5 6 7 5 5 7 5 7 6 9 8 7 8 8 10 12 14 15 14 13 12 11 12 11 10 9 8 8 7 6 6 7 7 7 6 6 7 8 8 8 8 7 7 7 7 7 7 8 8 7 6 6 5 5 5 5 5 5 5 5 5 6 6 6 6 6 7 7 7 7 7 6 6 5 5 5 4 4 3 3 3 3
14 12 8 5 6 7 8 7 7 8 9 10 9 10 9 8 8 7 10 13 14 13 12 13 10 10 10 10 9 9 9 7 7 7 7 7 7 6 6 7 6 6 7 7 7 8 8 8 7 7 6 6 8 7 5 5 5 5 5 5 5 5 5 5 6 5 6 6 7 6 6 5 6 6 6 6 6 6 6 6 5 5 5 4 4 4 3
2 7 8 8 8 7 8 8 10 10 10 10 8 10 9 9 10 11 11 11 11 11 11 12 13 13 12 11 9 8 8 8 8 7 7 6 6 7 7 6 4 5 5 6 7 8 8 8 7 7 7 7 6 6 6 5 5 4 4 4 4 4 5 6 7 7 6 6 6 6 6 6 6 6 6 6 6 6 6 5 5 4 5 4 4 4 4
9 5 7 9 10 9 9 7 8 10 12 13 11 8 7 8 10 11 11 11 11 10 11 11 11 12 11 12 10 9 8 8 8 8 8 6 6 6 6 5 5 5 6 6 6 6 7 7 7 7 7 7 7 6 5 5 4 4 4 4 4 5 6 5 5 6 7 3 4 7 7 6 6 6 6 7 7 8 7 7 5 5 5 5 5 4 4
11 11 10 10 12 14 12 11 10 9 10 12 13 12 11 9 11 12 12 10 9 9 9 9 9 10 9 9 9 10 9 8 7 7 7 7 6 6 5 5 5 5 5 6 6 6 6 5 5 5 5 5 5 5 4 4 3 3 4 4 5 5 5 6 6 6 5 6 6 6 7 8 8 8 7 6 6 8 9 8 7 6 5 4 5 5 4
7 5 5 5 7 9 9 10 10 10 11 13 13 11 12 10 11 11 11 10 9 8 7 6 6 7 6 6 7 8 8 8 8 7 7 6 6 6 5 4 5 6 6 6 5 5 5 4 5 4 4 4 4 4 4 3 3 3 3 4 5 5 5 5 5 5 5 6 6 5 5 6 7 8 10 12 11 6 7 7 7 9 9 6 6 6 5
9 10 12 13 13 13 11 11 11 12 11 12 12 10 8 7 8 10 11 9 7 5 3 2 6 6 5 5 5 7 7 7 6 6 6 5 5 5 4 4 5 6 6 5 6 5 5 4 4 4 4 4 4 4 3 3 3 3 3 4 5 5 6 6 6 5 6 6 6 6 5 4 4 6 7 8 9 9 7 3 3 2 2 2 2 6 7
14 12 11 10 11 12 12 12 12 11 11 11 12 10 7 6 7 7 8 8 8 6 5 3 4 7 6 5 6 7 6 5 6 5 5 5 5 4 3 4 4 5 5 5 6 6 4 4 4 4 4 4 4 3 4 4 3 4 4 4 5 5 5 6 5 4 6 6 6 6 6 5 5 4 3 5 7 6 5 4 3 2 2 3 3 2 3
12 10 11 12 12 12 10 9 9 9 9 10 11 11 9 7 5 5 5 4 4 5 5 5 4 3 5 5 5 6 6 5 4 4 4 4 2 2 3 3 3 4 4 4 5 4 4 4 3 3 3 4 3 4 3 4 5 5 6 6 5 5 5 4 5 5 5 6 6 6 6 6 5 5 5 5 4 3 6 5 2 3 5 3 4 4 3
12 12 12 12 11 11 10 10 10 9 10 10 10 9 8 8 7 7 7 6 5 6 7 6 5 4 3 4 4 5 6 6 5 4 4 4 3 2 3 3 3 3 3 4 4 3 3 3 3 3 4 4 4 4 5 5 6 6 7 7 7 6 5 4 5 5 5 5 5 6 6 6 6 5 5 5 4 3 3 3 2 5 7 5 6 8 8
12 11 11 10 9 8 7 8 8 9 9 9 10 10 9 8 5 7 7 6 6 6 6 6 6 5 4 4 4 3 3 5 5 3 2 3 3 4 3 3 3 3 2 3 3 3 2 2 2 3 4 4 4 4 5 5 6 6 6 6 6 5 4 7 5 5 5 5 5 5 6 5 5 5 5 5 4 4 5 4 4 4 5 3 8 8 7
8 6 4 7 8 9 9 10 9 8 8 8 8 8 7 6 6 7 7 7 6 5 5 5 5 5 5 4 4 5 4 4 3 2 1 2 3 3 3 3 2 2 2 2 3 2 1 2 3 4 4 4 4 4 5 5 5 5 5 5 5 5 4 4 5 6 6 6 6 6 5 5 5 5 5 5 4 4 4 4 5 5 3 5 5 9 3
7 7 8 10 10 9 8 8 7 7 6 5 5 5 5 5 4 4 5 4 4 4 4 5 3 2 3 4 1 2 2 1 1 1 2 3 2 2 2 2 2 2 1 2 2 2 2 3 4 4 4 3 4 4 5 5 4 4 4 4 4 5 4 5 5 5 6 6 6 6 5 4 4 5 5 5 5 4 4 5 6 4 5 6 6 5 5
5 6 8 9 9 9 8 8 7 6 5 4 4 3 2 2 2 2 3 3 2 1 2 3 3 2 1 2 1 1 1 2 2 2 1 1 2 1 1 0 1 2 1 2 2 2 1 3 4 4 4 4 4 4 4 4 5 5 5 5 6 5 5 5 4 5 5 5 4 3 4 5 5 5 5 5 5 5 5 5 5 4 6 6 6 6 7
6 6 7 7 6 6 7 7 6 5 4 3 2 2 2 0 2 1 1 1 1 1 1 3 2 2 3 1 1 0 1 1 1 1 1 1 1 1 1 2 3 2 2 2 2 1 1 3 4 3 3 4 4 4 4 4 4 5 5 6 6 6 4 6 7 5 5 5 5 4 5 4 5 5 5 5 6 5 6 6 5 5 5 6 7 7 8
7 7 6 6 5 5 5 4 3 3 3 2 2 1 2 1 1 0 1 1 1 2 2 3 4 4 2 0 0 1 1 0 0 0 0 0 0 0 1 2 2 1 3 1 0 1 2 3 4 4 4 4 4 3 3 3 3 3 4 4 5 5 3 7 2 6 5 5 4 5 5 5 5 5 6 6 6 5 5 5 5 5 5 5 7 7 8
7 6 6 5 5 4 4 3 2 3 2 2 0 1 1 0 1 1 2 1 1 1 3 4 4 2 1 1 1 1 0 1 1 1 1 2 1 1 1 1 2 2 2 1 1 2 3 3 4 4 4 4 3 3 3 3 2 3 3 3 4 5 3 1 4 4 6 5 6 5 5 4 4 5 6 5 6 4 4 4 4 4 4 6 6 7 8
2 3 3 4 2 3 2 4 2 2 3 2 1 1 1 2 1 0 1 0 1 1 1 2 2 1 1 2 3 2 1 1 2 1 1 1 1 2 1 0 1 2 2 2 2 3 4 4 4 4 5 5 4 3 2 2 2 2 2 3 3 4 4 4 4 1 4 4 5 4 5 6 5 5 4 5 5 5 4 4 4 5 4 5 6 6 7
2 4 2 4 4 5 5 4 3 2 2 2 3 2 2 2 2 1 3 1 1 1 2 2 2 2 3 3 2 2 1 0 1 1 1 1 1 1 0 1 3 3 3 3 3 4 5 5 5 5 5 4 4 4 3 2 2 2 2 3 3 3 3 2 2 2 3 4 4 5 3 4 4 4 4 4 4 4 4 5 5 5 4 4 4 5 6
4 3 4 5 4 4 4 4 4 4 2 2 2 4 4 3 3 3 4 2 2 2 2 2 2 2 2 2 2 4 3 1 1 0 0 1 2 2 2 2 2 4 4 5 4 5 6 5 5 6 3 3 4 4 3 1 3 3 2 3 4 3 3 3 3 3 2 2 3 4 4 4 4 5 4 4 4 4 3 2 3 4 4 5 5 4 5
3 2 3 5 4 2 4 4 4 3 3 3 3 3 4 4 3 2 2 3 3 2 2 3 2 2 2 2 0 1 2 1 0 0 1 2 2 2 3 3 2 2 3 3 4 6 7 5 7 4 5 4 4 3 4 1 4 4 4 4 3 3 3 3 2 2 3 2 3 4 5 4 1 4 4 4 3 4 3 2 4 3 3 4 4 5 6
4 2 3 5 4 4 5 5 4 4 3 4 3 2 3 3 3 3 2 3 3 3 2 2 1 2 2 2 1 3 3 2 2 2 2 2 2 2 3 3 4 3 3 1 4 5 6 7 8 5 6 4 3 4 4 3 4 4 3 4 5 3 3 3 3 2 2 2 2 2 2 2 1 2 3 3 3 3 3 3 3 2 2 3 3 4 5
4 2 4 4 3 4 6 5 3 3 2 1 2 3 2 2 3 3 3 4 3 3 4 4 4 4 4 3 3 3 4 4 4 3 3 3 3 3 3 3 3 3 3 3 3 4 5 7 7 6 6 4 5 4 7 4 3 4 4 4 5 4 4 4 3 3 1 1 2 1 1 1 2 2 1 3 2 2 3 2 1 3 3 3 2 3 3
4 4 5 4 3 3 3 3 3 3 2 1 1 2 3 4 4 3 3 4 4 4 4 4 5 4 3 2 2 1 1 2 4 4 3 2 2 3 4 5 6 5 4 4 2 3 5 4 7 6 5 5 5 4 5 4 4 4 3 3 4 4 4 4 3 3 2 3 4 2 2 2 1 1 1 1 2 1 1 1 1 3 2 3 3 3 4
5 4 4 2 2 2 2 1 1 0 0 2 3 2 3 2 2 3 4 4 4 5 5 5 5 4 3 2 1 1 1 1 2 3 4 4 4 3 2 1 4 4 7 5 6 5 7 7 8 6 5 5 7 6 6 7 6 3 3 3 3 3 4 4 4 3 3 3 3 3 2 1 2 2 1 0 1 0 1 1 1 1 2 2 3 3 3
4 3 2 1 1 1 1 2 2 4 3 2 2 3 3 3 4 3 2 2 3 4 5 6 6 5 3 2 2 3 3 3 2 3 4 4 4 3 2 0 3 2 8 8 6 5 7 8 8 7 6 5 5 3 5 4 5 4 4 4 4 4 4 4 4 4 3 3 3 2 2 2 2 1 1 1 1 0 1 1 1 1 1 2 2 2 2
3 2 1 1 1 0 1 2 2 2 2 1 1 2 3 4 4 4 3 3 3 4 5 5 5 5 5 6 5 5 4 4 4 4 4 5 5 5 4 3 1 5 9 6 6 6 6 7 8 8 7 7 5 8 4 6 5 4 4 4 4 4 4 3 3 3 4 4 3 3 3 3 3 2 2 1 2 1 1 2 2 2 1 1 1 1 1
1 1 1 0 0 1 1 2 2 2 3 1 1 1 2 3 4 4 4 4 4 4 4 5 5 6 7 7 6 6 5 4 4 4 4 3 4 6 6 4 2 6 8 6 6 6 6 6 6 7 11 6 9 10 6 7 6 5 4 5 4 4 4 5 5 5 5 4 4 4 3 2 2 2 2 2 1 2 1 0 1 2 1 1 1 1 1
2 1 1 1 1 2 2 1 2 3 2 2 3 3 4 4 4 4 4 5 5 4 4 5 5 5 5 6 6 6 5 3 3 2 3 3 3 2 6 5 4 4 6 7 6 6 6 6 6 11 9 10 8 7 8 7 6 6 5 5 5 5 5 5 5 4 4 4 4 3 2 2 2 2 3 2 1 1 1 2 2 2 2 2 1 1 1
1 2 2 2 4 3 2 2 2 2 2 3 3 4 4 5 5 5 5 6 6 5 5 4 5 4 5 5 6 6 5 5 4 4 4 4 4 3 4 3 4 4 7 9 6 6 5 6 10 10 10 10 8 8 8 7 7 6 6 6 5 5 5 5 5 5 4 4 4 4 4 4 2 3 2 3 3 2 1 1 1 3 3 3 3 2 1
0 1 1 2 3 2 2 2 2 3 4 4 5 4 3 3 4 4 4 5 6 6 5 5 5 4 4 5 5 5 5 6 6 5 5 4 4 3 5 3 4 7 6 5 5 4 2 5 7 8 9 9 9 8 7 7 7 7 6 6 5 5 5 4 5 5 5 5 4 2 2 3 2 2 3 3 3 2 2 2 2 2 1 2 3 3 3
1 1 1 1 2 1 2 3 5 5 5 5 4 4 3 2 3 4 4 5 6 6 6 5 5 5 5 4 5 6 5 5 4 4 3 3 3 3 4 5 5 8 6 3 4 2 5 4 8 8 8 8 8 8 7 7 7 7 6 6 6 5 5 5 5 6 5 4 4 5 6 5 4 4 3 3 2 2 2 3 3 3 2 2 2 2 2
1 1 1 1 1 2 3 4 4 5 5 5 5 5 4 3 4 5 5 5 6 6 6 7 7 6 6 5 5 5 5 5 6 6 2 2 3 3 2 5 7 7 6 5 5 4 7 6 7 8 8 8 7 8 7 7 7 7 6 6 6 6 5 5 5 5 5 5 5 5 5 5 4 3 3 3 3 2 4 3 2 3 3 3 2 3 2
1 1 3 2 1 1 2 3 3 3 3 3 4 4 3 4 5 5 4 4 5 5 6 6 6 6 5 5 5 5 5 5 5 6 6 5 4 4 4 4 4 7 6 4 5 3 8 8 7 7 7 7 7 7 6 7 7 7 7 7 6 5 6 4 2 4 5 5 5 6 6 6 6 4 4 4 3 2 2 2 3 3 6 2 3 2 2
2 2 2 1 2 1 2 3 4 3 4 3 3 3 3 5 5 5 5 5 5 6 6 6 6 5 5 5 5 5 4 5 4 3 4 3 3 2 1 2 3 4 5 5 5 4 5 6 4 7 7 7 7 7 7 6 7 7 6 5 7 7 6 5 6 6 6 5 5 5 5 6 6 6 4 4 4 3 4 4 3 3 4 4 4 4 3
3 3 2 2 2 2 3 2 2 2 3 3 4 4 5 5 5 5 4 2 5 6 6 6 6 5 5 4 4 5 4 4 5 4 4 4 3 3 4 3 3 5 5 5 5 5 4 4 7 8 7 6 5 4 5 4 6 5 4 6 6 6 6 6 5 4 3 4 5 5 5 6 5 4 4 4 4 5 4 3 3 3 3 4 4 4 3
Wind_Direction
35 22 47 69 75 68 80 74 55 47 28 183 229 259 350 316 226 261 144 150 130 134 131 121 115 117 115 108 91 88 89 85 82 81 82 78 77 76 74 71 69 68 65 59 58 57 56 61 59 52 42 48 83 86 68 68 66 73 77 106 108 98 127 148 162 139 120 123 104 106 110 116 128 119 104 113 127 138 152 151 164 168 170 168 169 169 160
25 29 38 338 132 117 95 67 59 47 52 58 34 50 358 300 283 173 155 118 106 107 112 106 101 105 102 101 100 89 82 74 76 81 78 71 59 51 57 61 68 61 61 60 60 50 44 46 52 58 54 46 35 42 67 74 72 75 97 111 111 112 114 127 148 158 156 147 139 131 132 135 121 110 105 108 117 116 114 131 142 150 153 155 157 163 166
57 17 25 87 152 141 101 74 52 34 69 70 44 38 12 58 96 111 113 115 100 74 98 104 114 110 106 94 86 83 73 66 68 76 80 75 68 67 69 67 64 60 52 46 49 50 47 47 51 55 58 55 50 49 44 42 47 58 80 106 107 108 109 123 145 159 164 163 142 133 128 124 114 114 102 77 65 92 98 89 104 120 147 161 161 151 166
149 170 136 169 148 156 116 86 52 37 34 81 34 49 7 319 160 147 143 141 133 129 120 112 111 110 100 87 78 76 73 66 67 69 73 72 69 68 61 60 57 55 51 46 45 44 46 49 50 51 53 54 57 54 48 47 52 61 62 64 76 94 108 118 129 136 132 104 116 108 115 125 141 127 106 77 34 67 86 102 99 105 116 117 125 134 152
160 162 175 145 171 167 182 78 24 1 35 81 111 59 26 346 63 149 189 131 121 136 130 114 93 86 82 78 76 80 77 73 71 70 69 69 70 67 62 64 62 51 47 46 44 43 45 46 52 56 57 58 54 55 59 55 57 59 62 64 65 69 87 111 121 130 134 129 135 152 152 141 125 137 141 133 180 134 102 102 109 105 95 144 187 153 199
139 158 151 167 183 203 169 37 6 12 29 341 87 53 18 21 336 63 37 116 128 134 131 119 115 95 84 80 72 68 80 86 81 75 71 67 68 64 62 63 64 60 49 42 45 48 47 43 47 56 62 67 58 48 58 60 62 64 67 63 62 53 39 38 94 105 113 126 128 129 147 145 145 148 141 134 136 136 138 140 118 130 165 182 178 166 169
151 150 166 188 219 127 51 13 43 24 45 71 87 74 46 40 78 101 109 116 128 126 115 109 106 103 94 80 73 70 68 75 78 78 72 67 66 64 63 60 59 54 49 42 42 45 43 38 37 48 53 60 66 64 62 66 64 66 63 64 60 52 47 42 63 86 99 110 116 129 134 129 140 155 153 135 135 143 148 140 147 165 178 164 150 153 162
132 162 189 212 85 88 77 39 21 350 287 15 126 75 42 34 48 109 119 114 109 111 111 111 113 109 100 82 67 67 63 63 77 81 77 72 65 62 58 62 56 52 48 42 36 36 37 44 43 43 44 49 62 63 61 63 66 68 67 62 58 56 53 42 42 52 74 88 90 100 114 122 118 120 131 130 126 131 126 119 130 154 147 141 134 145 152
206 158 94 69 120 143 125 119 23 13 14 346 347 60 56 28 25 125 128 124 120 119 119 121 125 119 99 78 60 52 62 62 62 69 73 75 74 72 65 61 65 57 52 45 32 30 36 42 44 41 42 47 56 58 57 57 62 62 60 56 49 51 52 50 53 54 53 59 70 84 100 104 100 96 92 90 104 123 126 135 151 153 138 138 166 155 160
270 145 136 141 186 174 116 74 85 35 341 320 284 278 98 58 78 139 139 133 133 128 132 134 138 141 87 78 60 50 67 74 77 70 70 71 70 68 69 61 53 49 49 51 41 36 39 41 36 36 44 54 59 54 50 50 57 59 57 50 41 39 38 41 48 52 51 57 62 64 66 84 95 98 101 103 91 97 107 111 119 119 118 101 67 71 73
205 190 184 173 182 75 54 33 354 351 334 312 250 252 147 120 143 142 140 133 134 136 142 146 160 178 94 102 89 68 75 76 75 79 72 68 65 62 59 53 47 40 39 46 47 41 43 49 40 36 39 55 62 58 49 48 49 54 56 55 48 43 39 36 38 41 45 48 53 57 62 64 73 80 81 80 77 76 94 99 89 79 66 108 117 102 83
193 205 210 115 37 78 28 357 348 340 332 274 248 221 126 128 136 141 136 128 126 126 106 73 47 70 128 128 104 85 76 72 74 81 85 83 80 71 65 60 59 48 26 43 49 43 42 45 44 41 46 58 59 58 55 54 53 50 46 49 54 55 53 51 50 48 44 46 46 49 52 53 47 51 61 70 68 77 73 81 86 93 97 98 94 83 88
163 232 97 100 107 80 10 347 333 328 308 271 239 24 61 128 135 137 125 118 115 94 56 48 89 44 69 90 98 103 103 93 82 78 82 77 75 80 76 69 63 60 50 46 44 41 34 37 40 42 47 58 62 57 54 56 50 45 41 39 42 44 49 53 53 52 54 56 58 58 58 64 67 70 68 69 70 72 67 52 63 66 72 75 80 85 83
114 236 174 101 75 38 336 333 319 322 283 214 50 12 215 132 133 133 127 118 105 92 96 94 93 101 101 101 96 88 82 88 88 86 91 94 89 81 72 75 79 75 67 63 57 50 37 33 37 44 47 53 55 54 53 53 46 40 36 36 38 40 44 47 46 47 46 42 47 52 52 64 78 83 86 95 109 113 112 112 108 105 105 104 100 91 87
160 12 106 142 117 48 2 330 265 15 326 52 338 65 117 119 127 126 119 115 106 101 99 100 106 109 111 113 113 105 98 94 89 89 90 93 97 94 88 81 75 78 76 64 55 47 34 32 31 36 47 54 54 53 54 50 49 46 41 39 40 41 38 38 38 39 40 38 37 32 34 40 52 59 61 63 62 68 100 114 104 100 103 115 127 130 120
24 85 69 35 5 333 354 3 26 4 357 323 313 268 119 125 123 123 124 120 116 115 117 117 113 115 119 118 117 112 109 106 99 85 82 88 95 99 95 90 87 86 83 77 71 58 49 44 42 44 49 55 51 53 47 34 37 39 45 49 51 49 42 38 40 39 40 38 30 29 28 30 40 45 42 46 50 49 40 49 71 82 86 99 105 96 95
50 56 68 43 30 19 21 25 41 29 22 35 32 71 105 103 108 123 115 114 122 122 123 124 130 129 131 132 136 128 124 120 115 110 104 97 93 89 87 89 89 81 82 87 87 83 71 62 54 49 50 54 54 52 41 33 37 35 37 42 46 54 57 59 60 63 54 50 49 41 40 38 42 44 42 33 47 42 47 51 54 61 63 56 61 75 72
95 70 60 59 46 42 47 49 43 48 55 48 59 67 71 53 77 90 109 117 117 120 125 124 123 122 126 120 117 120 118 112 104 102 103 98 94 97 100 94 85 87 94 86 79 75 68 62 61 56 51 49 49 44 38 37 36 43 45 48 47 48 54 51 48 61 69 68 60 54 51 55 50 54 49 48 42 41 39 40 39 40 40 39 43 39 38
199 52 25 51 52 57 61 65 64 62 56 54 51 55 48 58 79 89 90 100 110 118 126 123 126 128 128 124 121 119 120 121 122 118 111 103 99 94 74 58 55 71 71 71 67 62 57 46 42 41 41 43 43 41 35 36 45 51 57 56 59 56 59 68 62 55 52 51 65 61 51 50 54 44 43 48 51 45 42 38 45 45 40 34 31 30 23
76 103 72 68 68 67 63 60 65 66 67 69 65 67 56 53 59 72 83 93 95 99 101 109 116 119 124 129 131 129 126 125 123 115 110 105 95 81 77 76 69 67 66 69 66 62 57 46 40 35 34 32 31 27 32 37 48 53 48 42 63 69 67 65 64 71 74 34 40 70 54 48 47 48 52 54 51 42 29 21 17 27 33 33 24 16 5
96 104 97 95 84 69 63 65 66 70 82 85 81 76 70 58 62 62 55 49 61 73 86 95 106 112 120 125 129 127 128 127 123 121 119 112 106 101 86 76 73 77 81 77 73 66 57 49 44 47 43 41 36 33 33 40 43 57 71 78 75 77 77 77 75 70 68 67 70 77 80 67 55 36 22 31 66 65 40 32 21 4 4 27 13 1 345
104 99 150 174 78 76 69 76 88 89 86 88 86 78 74 71 72 67 68 50 37 41 40 61 79 91 91 105 118 118 115 114 116 120 117 110 100 99 103 102 97 94 87 82 74 64 61 50 49 48 51 51 44 42 40 46 61 78 86 85 78 71 69 71 74 78 76 78 75 80 90 97 94 80 57 41 25 52 86 60 28 17 7 23 3 341 334
94 97 94 90 97 103 108 113 116 110 110 105 101 104 114 120 119 119 117 113 103 92 66 66 114 116 119 114 113 110 112 112 114 106 100 88 80 78 89 96 84 79 80 76 70 61 53 49 54 59 58 57 59 50 50 46 45 73 89 85 81 79 74 64 33 56 73 70 68 71 68 72 96 115 115 91 86 75 69 77 46 11 21 8 3 1 357
99 102 101 102 99 102 110 109 113 115 115 107 111 116 124 129 128 128 126 128 131 135 144 141 137 131 127 123 114 109 104 106 101 92 85 86 81 69 54 68 75 79 72 58 53 49 46 40 48 56 63 62 59 60 49 53 70 72 72 69 74 72 69 68 53 50 66 62 60 59 58 55 50 44 78 120 124 134 138 122 157 140 99 70 56 97 35
102 96 91 92 99 103 105 104 100 99 110 116 115 118 123 130 130 125 114 110 119 133 136 124 81 90 117 115 119 128 131 125 119 113 104 86 73 71 69 73 81 76 59 37 48 43 46 43 56 68 78 71 66 62 68 84 80 83 84 74 71 75 78 77 81 62 56 58 54 55 52 48 47 40 37 32 36 81 132 145 199 171 148 117 64 37 28
104 104 102 102 103 103 107 105 97 100 103 109 115 121 133 132 138 143 134 137 136 137 131 133 127 112 116 124 129 140 148 149 138 165 159 145 137 121 80 64 66 75 61 45 48 50 49 44 60 80 85 94 84 76 81 87 90 87 79 62 47 38 31 35 60 51 56 51 49 52 48 48 39 42 44 36 37 32 22 39 140 162 155 105 51 32 13
104 106 111 108 100 94 93 91 99 100 100 101 104 107 115 124 140 117 113 112 108 111 121 123 121 128 125 116 117 113 106 124 152 211 97 96 87 75 78 84 72 70 53 51 60 44 12 50 105 101 93 91 94 98 98 98 98 95 94 93 89 84 16 342 55 51 48 43 45 46 46 42 44 42 44 38 36 29 23 19 18 7 7 115 118 74 13
89 68 58 101 103 102 99 102 107 103 97 98 107 112 116 119 117 116 117 120 122 119 112 119 124 133 126 133 144 137 150 172 181 137 141 91 82 84 89 88 98 88 76 59 69 77 57 113 110 106 101 99 95 99 103 106 101 98 88 87 98 88 75 60 50 52 49 47 39 41 37 46 45 46 37 40 32 32 30 26 8 5 15 13 11 100 162
75 73 76 82 92 100 108 110 116 112 109 103 104 116 128 119 94 98 96 92 118 136 134 134 125 115 115 116 130 110 104 121 156 126 102 84 87 85 102 123 114 107 71 67 88 101 139 130 123 118 112 118 117 111 113 113 111 100 92 88 84 81 60 59 54 64 63 57 51 47 41 35 43 45 45 47 39 35 39 31 21 12 10 25 7 24 18
82 100 107 107 111 121 125 117 109 116 117 124 128 125 107 91 116 79 75 117 162 156 124 147 164 155 147 157 153 28 33 23 11 27 51 72 68 67 56 73 184 156 198 119 82 87 137 130 135 126 121 129 126 125 114 113 105 95 80 66 55 51 55 36 74 75 69 74 89 100 58 47 38 39 38 37 32 40 44 35 29 19 19 24 20 13 9
94 107 111 116 120 116 102 100 108 109 125 132 121 126 145 327 16 50 81 80 232 294 153 224 219 182 184 229 152 107 6 349 350 360 32 54 61 20 345 318 307 2 358 31 70 79 139 135 128 128 141 143 133 130 129 122 119 115 104 94 93 56 16 347 24 45 67 64 66 53 59 51 54 52 35 36 37 34 31 37 31 26 18 21 20 18 16
118 118 128 134 129 120 111 121 117 117 107 127 173 151 144 192 210 55 75 295 334 297 253 234 233 235 232 131 146 190 203 139 158 141 158 172 180 183 343 332 356 345 295 354 26 214 186 165 147 145 150 141 142 128 130 124 129 113 102 116 117 137 114 267 122 66 58 68 73 72 56 52 52 42 46 39 41 37 38 35 32 27 27 24 24 25 16
133 134 139 147 140 133 120 115 119 111 120 128 106 26 51 43 47 53 9 8 294 236 242 237 233 226 175 168 191 187 128 89 79 116 317 295 272 123 63 17 333 303 276 211 238 218 201 183 158 164 171 166 160 151 148 149 161 138 133 137 124 106 113 69 22 82 78 62 57 50 57 48 54 58 51 47 42 39 40 37 31 28 27 30 29 38 28
50 71 99 128 118 112 122 126 125 106 108 99 119 159 163 164 142 17 89 17 345 319 235 217 198 167 174 93 79 75 99 247 246 128 125 304 31 69 53 297 256 234 226 228 223 206 192 192 176 177 175 181 176 164 163 165 146 139 142 156 155 151 151 141 206 107 75 78 93 97 71 58 43 44 58 53 47 45 42 37 37 31 32 31 35 37 48
77 74 106 120 111 107 101 106 120 96 108 126 143 154 147 148 155 91 41 313 80 55 80 124 137 125 91 90 100 110 195 297 30 45 57 63 83 118 121 272 246 225 217 226 229 209 196 190 193 189 188 190 188 185 184 185 203 197 166 167 165 191 156 170 139 85 79 71 55 58 55 56 57 67 56 47 57 58 55 44 36 37 42 39 37 32 36
165 148 138 151 132 119 115 102 95 80 69 65 91 122 146 151 156 151 173 172 106 120 115 99 95 107 107 130 156 179 202 208 205 297 128 146 152 167 159 224 255 240 224 224 217 208 199 190 76 5 300 196 200 191 207 233 216 209 202 212 179 191 170 169 140 130 107 91 76 71 70 95 89 54 47 61 57 50 53 54 43 46 43 45 44 40 38
149 142 157 155 135 132 108 110 100 86 88 104 115 124 132 146 173 132 110 146 154 137 134 143 140 144 177 206 42 102 190 226 271 87 101 124 157 162 184 199 213 241 231 233 213 206 203 182 132 197 251 199 201 214 109 350 250 209 193 210 208 195 174 184 174 158 120 114 104 108 148 177 69 59 61 62 62 51 39 48 60 51 48 46 45 46 47
138 99 143 130 129 133 105 95 89 91 114 119 115 120 130 149 155 158 167 151 157 149 145 160 151 152 162 156 194 219 236 212 204 173 146 166 174 178 207 221 215 193 215 240 126 171 206 132 141 206 221 213 193 175 124 116 338 300 214 209 209 203 205 201 204 199 197 162 135 128 104 57 63 45 49 52 68 68 59 57 48 42 50 49 48 48 50
151 147 139 130 144 128 125 119 101 82 82 100 118 128 144 144 158 171 174 172 156 153 172 172 161 180 202 225 227 200 193 189 169 157 170 175 195 217 263 288 317 334 20 76 143 202 177 151 195 207 215 201 199 176 127 152 248 258 223 198 204 212 203 202 215 208 167 201 227 135 140 88 61 64 58 54 51 78 95 90 54 51 54 51 48 51 53
134 138 141 151 156 152 170 136 103 96 101 116 223 163 152 180 181 194 182 183 167 177 202 192 201 221 218 229 259 289 356 159 164 163 183 199 207 237 253 240 226 225 174 158 201 206 142 137 208 208 211 195 201 198 169 157 237 238 198 201 195 208 209 219 213 221 211 230 130 165 215 167 153 60 69 26 61 53 47 138 109 58 55 50 46 51 57
107 133 148 165 153 174 166 180 206 62 183 207 209 204 188 210 208 215 210 203 167 187 207 215 224 240 246 237 238 320 5 281 256 221 187 202 226 238 269 317 120 152 168 186 207 157 144 196 206 211 210 206 205 204 176 154 224 210 220 217 221 209 216 228 239 235 222 224 209 221 209 209 155 185 132 59 31 39 131 148 127 78 57 54 56 51 53
82 99 118 183 195 217 246 266 291 276 259 240 201 200 203 209 224 232 237 235 208 201 214 218 231 263 275 234 232 238 248 253 240 238 221 247 278 297 288 28 124 140 134 166 185 186 178 195 212 231 225 207 194 115 319 201 217 214 224 216 229 223 231 226 232 233 238 248 250 249 201 230 236 223 177 224 230 205 107 142 159 161 105 79 66 65 63
77 79 87 89 72 257 277 282 280 297 289 223 190 204 205 209 225 235 235 228 229 226 226 234 195 204 234 232 233 241 243 237 244 244 242 244 247 264 276 320 22 116 145 188 192 205 202 207 204 210 211 222 188 145 202 225 224 225 231 228 232 240 245 249 260 254 242 242 248 254 238 231 227 211 197 215 204 204 168 168 202 171 159 122 105 110 80
113 132 114 131 112 48 309 277 269 252 258 208 133 211 216 217 227 241 246 249 239 237 243 239 224 217 220 225 232 244 247 228 227 224 251 241 215 212 226 240 246 134 164 194 204 222 219 212 220 170 159 138 129 162 201 223 229 230 239 238 239 242 248 245 245 247 242 241 244 234 214 220 250 228 200 202 211 210 133 151 234 173 167 161 154 149 143
217 231 257 302 331 290 273 298 316 324 327 299 257 246 245 248 244 244 250 245 244 243 242 255 249 236 226 220 227 236 253 254 265 260 263 261 281 162 158 187 203 184 178 211 227 228 232 228 148 139 161 154 168 197 216 227 227 230 234 238 239 244 247 247 246 241 240 245 240 229 229 247 227 205 219 191 175 217 195 186 183 182 181 201 192 222 180
207 216 216 231 249 253 291 313 333 303 291 285 265 240 242 253 255 250 244 248 243 242 255 257 261 249 240 231 230 234 241 243 244 248 266 291 305 5 111 181 202 194 154 178 231 234 237 121 133 157 162 169 172 205 226 227 226 223 230 236 239 236 240 239 228 231 231 231 222 226 200 199 208 222 205 197 173 204 168 180 209 204 195 185 200 213 211
100 200 233 256 263 252 233 235 253 271 271 263 266 267 251 255 258 251 245 245 252 252 251 259 261 257 242 236 236 230 223 222 219 216 234 240 229 224 137 136 90 114 151 200 223 238 259 147 154 159 169 169 184 210 219 221 221 226 229 236 237 240 238 233 225 227 226 225 223 251 352 322 282 229 179 224 195 205 201 196 232 206 174 176 190 194 229
315 296 307 288 281 233 220 230 242 256 261 270 278 287 295 269 258 259 251 250 248 249 249 246 250 250 243 231 227 239 254 258 268 253 197 232 229 204 195 214 187 172 183 224 266 286 72 130 146 167 166 168 192 216 221 219 221 222 230 229 234 233 229 221 220 222 225 220 210 229 222 208 205 231 212 210 212 204 210 206 209 224 223 210 204 204 203
64 38 54 278 244 250 262 267 265 265 265 269 265 270 275 277 266 253 251 249 249 249 246 244 243 246 246 240 243 243 231 242 250 269 296 261 246 228 197 125 121 152 191 229 221 197 152 157 156 170 162 183 203 215 220 218 219 223 228 237 234 231 232 230 229 228 225 225 230 237 247 250 243 224 217 221 227 219 201 211 217 225 219 220 213 207 209
132 228 224 220 252 260 279 274 271 289 301 288 273 269 268 267 268 271 267 262 262 267 264 254 245 237 235 233 224 236 239 237 236 250 260 253 250 252 241 236 171 166 211 236 208 158 126 144 149 159 175 197 209 218 217 218 217 218 227 235 242 240 232 245 322 345 295 271 260 255 252 254 254 249 247 241 228 222 217 207 221 152 100 228 234 221 202
216 239 288 321 307 341 327 309 324 323 304 303 297 295 278 270 279 282 280 280 276 264 264 261 252 241 239 232 232 234 236 235 232 232 252 244 235 213 230 239 174 173 189 218 222 191 157 181 175 170 191 208 213 214 221 222 225 223 226 238 235 241 231 213 233 232 227 236 244 244 246 247 245 244 230 229 225 219 218 216 225 224 210 225 221 222 216
271 279 277 275 295 301 294 284 286 277 278 276 281 277 274 276 280 278 276 210 270 274 266 265 261 246 236 238 239 241 231 245 247 208 212 236 240 232 150 195 222 165 190 204 211 201 186 160 151 172 197 208 217 219 208 204 227 234 234 232 237 234 237 245 225 227 224 217 238 252 248 248 247 234 226 228 221 213 216 217 218 223 216 218 215 214 216